Location: Newark
(21.1200°N, 73.4000°E)
Time: 10:16:57
(UTC+00:00)

Vanguard 1 Rocket - Pass Details

Date: 26 January 2021
Orbit: 654 x 4223 km, 34.3° (Epoch: 07 March)

Event Time Altitude Azimuth Distance (km) Brightness Sun altitude
Rises 23:05:43 0° 195° (SSW) 8,291 12.2 -36.9°
Reaches altitude 10° 23:21:48 10° 160° (SSE) 6,318 11.9 -33.2°
Maximum altitude 23:23:51 10° 154° (SSE) 6,124 11.9 -32.7°
Drops below altitude 10° 23:25:47 10° 148° (SSE) 5,965 12.0 -32.3°
Sets 23:36:35 0° 111° (ESE) 5,800 12.7 -29.8°
